This is the latest recevied weather packets stored in our database for station/object DH5DY-6. If no packets are shown the sender has not sent any weather packets the latest 10 day(s).
| Time | Temp. | Humidity | Pressure | Rain* | Wind** | Luminosity | Snow |
|---|---|---|---|---|---|---|---|
| 1788114058 | 18.89° C | 71% | 1011.3 hPa | 0 mm | - | 0 W/m² | - |
| 1788113459 | 18.89° C | 71% | 1011.3 hPa | 0 mm | - | 5 W/m² | - |
| 1788112858 | 19.44° C | 69% | 1011.1 hPa | 0 mm | - | 11 W/m² | - |
| 1788112258 | 20° C | 68% | 1011.1 hPa | 0 mm | - | 18 W/m² | - |
| 1788111658 | 20.56° C | 68% | 1011.2 hPa | 0 mm | - | 28 W/m² | - |
| 1788111058 | 20.56° C | 65% | 1011.2 hPa | 0 mm | - | 37 W/m² | - |
| 1788109858 | 21.11° C | 63% | 1011.2 hPa | 0 mm | - | 56 W/m² | - |
| 1788109258 | 21.11° C | 61% | 1011.4 hPa | 0 mm | - | 63 W/m² | - |
| 1788108059 | 21.67° C | 61% | 1011.2 hPa | 0 mm | - | 93 W/m² | - |
| 1788107458 | 21.67° C | 58% | 1011.2 hPa | 0 mm | - | 105 W/m² | - |
| 1788106258 | 21.67° C | 57% | 1011.3 hPa | 0 mm | - | 144 W/m² | - |
| 1788105657 | 21.67° C | 57% | 1011.1 hPa | 0 mm | - | 153 W/m² | - |
| 1788104457 | 22.22° C | 56% | 1011.2 hPa | 0 mm | - | 190 W/m² | - |
| 1788103857 | 22.22° C | 55% | 1011.2 hPa | 0 mm | - | 246 W/m² | - |
| 1788102657 | 22.22° C | 55% | 1011.3 hPa | 0 mm | - | 232 W/m² | - |
| 1788102057 | 22.22° C | 54% | 1011.3 hPa | 0 mm | - | 306 W/m² | - |
| 1788100857 | 22.22° C | 56% | 1011.3 hPa | 0 mm | - | 383 W/m² | - |
| 1788100257 | 22.22° C | 56% | 1011.2 hPa | 0 mm | - | 359 W/m² | - |
| 1788099057 | 22.78° C | 55% | 1011.4 hPa | 0 mm | - | 429 W/m² | - |
| 1788098456 | 22.78° C | 56% | 1011.4 hPa | 0 mm | - | 473 W/m² | - |
| 1788097256 | 22.78° C | 57% | 1011.3 hPa | 0 mm | - | 512 W/m² | - |
| 1788096657 | 22.78° C | 57% | 1011.3 hPa | 0 mm | - | 323 W/m² | - |
| 1788094856 | 22.22° C | 59% | 1011.3 hPa | 0 mm | - | 461 W/m² | - |
| 1788093656 | 21.67° C | 58% | 1011.3 hPa | 0 mm | - | 555 W/m² | - |
| 1788093059 | 22.22° C | 59% | 1011.3 hPa | 0 mm | - | 538 W/m² | - |
* Rain latest hour (hover to see other rain measurements)
** Current wind speed in m/s (hover to see current wind gust speed)